Time,TemperatureF,DewpointF,PressureIn,WindDirection,WindDirectionDegrees,WindSpeedMPH,WindSpeedGustMPH,Humidity,HourlyPrecipIn,Conditions,Clouds,dailyrainin,SoftwareType,DateUTC
2013-06-27 00:04:00,70.1,70.1,29.90,NW,315,0.0,0.0,100,0.00,,,0.00,WUHU216DAVISWMX,2013-06-27 04:04:00,
2013-06-27 00:09:00,70.3,70.3,29.90,NW,315,0.0,0.0,100,0.00,,,0.00,WUHU216DAVISWMX,2013-06-27 04:09:00,
2013-06-27 00:14:00,70.2,70.2,29.90,NW,315,0.0,0.0,100,0.00,,,0.00,WUHU216DAVISWMX,2013-06-27 04:14:00,
2013-06-27 00:19:00,70.3,70.3,29.90,NW,315,0.0,0.0,100,0.00,,,0.00,WUHU216DAVISWMX,2013-06-27 04:19:00,
2013-06-27 00:24:00,70.3,70.3,29.90,NW,315,0.0,0.0,100,0.00,,,0.00,WUHU216DAVISWMX,2013-06-27 04:24:00,
2013-06-27 00:29:00,70.1,70.1,29.90,NW,315,0.0,0.0,100,0.00,,,0.00,WUHU216DAVISWMX,2013-06-27 04:29:00,
2013-06-27 00:35:00,70.1,70.1,29.90,NW,315,0.0,0.0,100,0.00,,,0.00,WUHU216DAVISWMX,2013-06-27 04:35:00,
2013-06-27 00:40:00,70.3,70.3,29.90,NW,315,0.0,0.0,100,0.00,,,0.00,WUHU216DAVISWMX,2013-06-27 04:40:00,
2013-06-27 00:45:00,70.2,70.2,29.90,NW,315,0.0,0.0,100,0.00,,,0.00,WUHU216DAVISWMX,2013-06-27 04:45:00,
2013-06-27 00:50:00,70.2,70.2,29.90,NW,315,0.0,0.0,100,0.00,,,0.00,WUHU216DAVISWMX,2013-06-27 04:50:00,
2013-06-27 00:55:00,70.2,70.2,29.90,NW,315,0.0,0.0,100,0.00,,,0.00,WUHU216DAVISWMX,2013-06-27 04:55:00,
2013-06-27 01:00:00,70.1,70.1,29.90,NW,315,0.0,0.0,100,0.00,,,0.00,WUHU216DAVISWMX,2013-06-27 05:00:00,
2013-06-27 01:05:00,70.1,70.1,29.90,NW,315,0.0,0.0,100,0.00,,,0.00,WUHU216DAVISWMX,2013-06-27 05:05:00,
2013-06-27 01:10:00,69.8,69.8,29.90,NW,315,0.0,0.0,100,0.00,,,0.00,WUHU216DAVISWMX,2013-06-27 05:10:00,
2013-06-27 01:15:00,69.9,69.9,29.90,NW,315,0.0,0.0,100,0.00,,,0.00,WUHU216DAVISWMX,2013-06-27 05:15:00,
2013-06-27 01:20:00,69.8,69.8,29.90,NW,315,0.0,0.0,100,0.00,,,0.00,WUHU216DAVISWMX,2013-06-27 05:20:00,
2013-06-27 01:25:00,69.9,69.9,29.90,NW,315,0.0,0.0,100,0.00,,,0.00,WUHU216DAVISWMX,2013-06-27 05:25:00,
2013-06-27 01:30:00,69.6,69.6,29.90,NW,315,0.0,0.0,100,0.00,,,0.00,WUHU216DAVISWMX,2013-06-27 05:30:00,
2013-06-27 01:35:00,69.6,69.6,29.90,NW,315,0.0,0.0,100,0.00,,,0.00,WUHU216DAVISWMX,2013-06-27 05:35:00,
2013-06-27 01:40:00,69.6,69.6,29.90,NW,315,0.0,0.0,100,0.00,,,0.00,WUHU216DAVISWMX,2013-06-27 05:40:00,
2013-06-27 01:45:00,69.7,69.7,29.89,NW,315,0.0,0.0,100,0.00,,,0.00,WUHU216DAVISWMX,2013-06-27 05:45:00,
2013-06-27 01:50:00,69.6,69.6,29.89,NW,315,0.0,0.0,100,0.00,,,0.00,WUHU216DAVISWMX,2013-06-27 05:50:00,
2013-06-27 01:55:00,69.9,69.9,29.89,NW,315,0.0,0.0,100,0.00,,,0.00,WUHU216DAVISWMX,2013-06-27 05:55:00,
2013-06-27 02:00:00,69.5,69.5,29.90,NW,315,0.0,0.0,100,0.00,,,0.00,WUHU216DAVISWMX,2013-06-27 06:00:00,
2013-06-27 02:05:00,69.6,69.6,29.89,NW,315,0.0,0.0,100,0.00,,,0.00,WUHU216DAVISWMX,2013-06-27 06:05:00,
2013-06-27 02:10:00,69.6,69.6,29.89,NW,315,0.0,0.0,100,0.00,,,0.00,WUHU216DAVISWMX,2013-06-27 06:10:00,
2013-06-27 02:15:00,69.6,69.6,29.88,NW,315,0.0,0.0,100,0.00,,,0.00,WUHU216DAVISWMX,2013-06-27 06:15:00,
2013-06-27 02:20:00,69.7,69.7,29.88,NW,315,0.0,0.0,100,0.00,,,0.00,WUHU216DAVISWMX,2013-06-27 06:20:00,
2013-06-27 02:25:00,69.6,69.6,29.87,NW,315,0.0,0.0,100,0.00,,,0.00,WUHU216DAVISWMX,2013-06-27 06:25:00,
2013-06-27 02:30:00,69.5,69.5,29.87,NW,315,0.0,0.0,100,0.00,,,0.00,WUHU216DAVISWMX,2013-06-27 06:30:00,
2013-06-27 02:35:00,69.4,69.4,29.87,NW,315,0.0,0.0,100,0.00,,,0.00,WUHU216DAVISWMX,2013-06-27 06:35:00,
2013-06-27 02:40:00,69.6,69.6,29.87,NW,315,0.0,0.0,100,0.00,,,0.00,WUHU216DAVISWMX,2013-06-27 06:40:00,
2013-06-27 02:45:00,69.3,69.3,29.87,NW,315,0.0,0.0,100,0.00,,,0.00,WUHU216DAVISWMX,2013-06-27 06:45:00,
2013-06-27 02:50:00,69.6,69.6,29.87,NW,315,0.0,0.0,100,0.00,,,0.00,WUHU216DAVISWMX,2013-06-27 06:50:00,
2013-06-27 02:55:00,69.5,69.5,29.87,NW,315,0.0,0.0,100,0.00,,,0.00,WUHU216DAVISWMX,2013-06-27 06:55:00,
2013-06-27 03:00:00,69.4,69.4,29.87,NW,315,0.0,0.0,100,0.00,,,0.00,WUHU216DAVISWMX,2013-06-27 07:00:00,
2013-06-27 03:05:00,69.6,69.6,29.87,NW,315,0.0,0.0,100,0.00,,,0.00,WUHU216DAVISWMX,2013-06-27 07:05:00,
2013-06-27 03:10:00,69.4,69.4,29.87,NW,315,0.0,0.0,100,0.00,,,0.00,WUHU216DAVISWMX,2013-06-27 07:10:00,
2013-06-27 03:15:00,69.6,69.6,29.88,NW,315,0.0,0.0,100,0.00,,,0.00,WUHU216DAVISWMX,2013-06-27 07:15:00,
2013-06-27 03:20:00,69.4,69.4,29.87,NW,315,0.0,0.0,100,0.00,,,0.00,WUHU216DAVISWMX,2013-06-27 07:20:00,
2013-06-27 03:25:00,69.3,69.3,29.87,NW,315,0.0,0.0,100,0.00,,,0.00,WUHU216DAVISWMX,2013-06-27 07:25:00,
2013-06-27 03:30:00,69.5,69.5,29.87,NW,315,0.0,0.0,100,0.00,,,0.00,WUHU216DAVISWMX,2013-06-27 07:30:00,
2013-06-27 03:35:00,69.5,69.5,29.87,NW,315,0.0,0.0,100,0.00,,,0.00,WUHU216DAVISWMX,2013-06-27 07:35:00,
2013-06-27 03:40:00,69.8,69.8,29.87,NW,315,0.0,0.0,100,0.00,,,0.00,WUHU216DAVISWMX,2013-06-27 07:40:00,
2013-06-27 03:45:00,69.5,69.5,29.87,NW,315,0.0,1.0,100,0.00,,,0.00,WUHU216DAVISWMX,2013-06-27 07:45:00,
2013-06-27 03:50:00,69.3,69.3,29.86,SSE,150,0.0,3.0,100,0.00,,,0.00,WUHU216DAVISWMX,2013-06-27 07:50:00,
2013-06-27 03:55:00,69.5,69.5,29.87,SE,135,0.0,3.0,100,0.00,,,0.00,WUHU216DAVISWMX,2013-06-27 07:55:00,
2013-06-27 04:00:00,69.5,69.5,29.87,ESE,105,0.0,2.0,100,0.00,,,0.00,WUHU216DAVISWMX,2013-06-27 08:00:00,
2013-06-27 04:05:00,69.0,69.0,29.87,ESE,106,0.0,2.0,100,0.00,,,0.00,WUHU216DAVISWMX,2013-06-27 08:05:00,
2013-06-27 04:10:00,68.8,68.8,29.87,ESE,106,0.0,2.0,100,0.00,,,0.00,WUHU216DAVISWMX,2013-06-27 08:10:00,
2013-06-27 04:15:00,68.5,68.5,29.87,SE,127,0.0,3.0,100,0.00,,,0.00,WUHU216DAVISWMX,2013-06-27 08:15:00,
2013-06-27 04:20:00,68.6,68.6,29.87,ESE,102,0.0,3.0,100,0.00,,,0.00,WUHU216DAVISWMX,2013-06-27 08:20:00,
2013-06-27 04:25:00,68.1,68.1,29.87,ESE,102,0.0,2.0,100,0.00,,,0.00,WUHU216DAVISWMX,2013-06-27 08:25:00,
2013-06-27 04:30:00,68.2,68.2,29.87,ESE,102,0.0,1.0,100,0.00,,,0.00,WUHU216DAVISWMX,2013-06-27 08:30:00,
2013-06-27 04:35:00,67.8,67.8,29.86,ESE,102,0.0,1.0,100,0.00,,,0.00,WUHU216DAVISWMX,2013-06-27 08:35:00,
2013-06-27 04:40:00,67.6,67.6,29.86,NE,50,0.0,2.0,100,0.00,,,0.00,WUHU216DAVISWMX,2013-06-27 08:40:00,
2013-06-27 04:45:00,67.6,67.6,29.86,SE,143,0.0,2.0,100,0.00,,,0.00,WUHU216DAVISWMX,2013-06-27 08:45:00,
2013-06-27 04:50:00,67.4,67.4,29.87,SE,130,1.0,2.0,100,0.00,,,0.00,WUHU216DAVISWMX,2013-06-27 08:50:00,
2013-06-27 04:55:00,67.5,67.5,29.87,SE,129,1.0,2.0,100,0.00,,,0.00,WUHU216DAVISWMX,2013-06-27 08:55:00,
2013-06-27 05:00:00,67.3,67.3,29.87,SE,126,0.0,1.0,100,0.00,,,0.00,WUHU216DAVISWMX,2013-06-27 09:00:00,
2013-06-27 05:05:00,66.8,66.8,29.87,NE,35,0.0,1.0,100,0.00,,,0.00,WUHU216DAVISWMX,2013-06-27 09:05:00,
2013-06-27 05:10:00,66.8,66.8,29.87,NE,35,0.0,1.0,100,0.00,,,0.00,WUHU216DAVISWMX,2013-06-27 09:10:00,
2013-06-27 05:15:00,66.5,66.5,29.88,NNE,29,0.0,2.0,100,0.00,,,0.00,WUHU216DAVISWMX,2013-06-27 09:15:00,
2013-06-27 05:20:00,66.7,66.7,29.88,NNE,29,0.0,2.0,100,0.00,,,0.00,WUHU216DAVISWMX,2013-06-27 09:20:00,
2013-06-27 05:25:00,66.3,66.3,29.88,NNE,17,0.0,2.0,100,0.00,,,0.00,WUHU216DAVISWMX,2013-06-27 09:25:00,
2013-06-27 05:30:00,66.1,66.1,29.89,NNE,17,1.0,2.0,100,0.00,,,0.00,WUHU216DAVISWMX,2013-06-27 09:30:00,
2013-06-27 05:35:00,66.2,66.2,29.89,NNE,17,0.0,2.0,100,0.00,,,0.00,WUHU216DAVISWMX,2013-06-27 09:35:00,
2013-06-27 05:40:00,65.9,65.9,29.89,NNE,17,0.0,2.0,100,0.00,,,0.00,WUHU216DAVISWMX,2013-06-27 09:40:00,
2013-06-27 05:45:00,66.0,66.0,29.89,NNE,17,0.0,0.0,100,0.00,,,0.00,WUHU216DAVISWMX,2013-06-27 09:45:00,
2013-06-27 05:50:00,65.7,65.7,29.90,NNE,17,0.0,0.0,100,0.00,,,0.00,WUHU216DAVISWMX,2013-06-27 09:50:00,
2013-06-27 05:55:00,65.6,65.6,29.90,NNE,17,0.0,0.0,100,0.00,,,0.00,WUHU216DAVISWMX,2013-06-27 09:55:00,
2013-06-27 06:00:00,65.7,65.7,29.90,NNE,17,0.0,1.0,100,0.00,,,0.00,WUHU216DAVISWMX,2013-06-27 10:00:00,
2013-06-27 06:05:00,65.7,65.7,29.91,NNE,17,0.0,1.0,100,0.00,,,0.00,WUHU216DAVISWMX,2013-06-27 10:05:00,
2013-06-27 06:10:00,65.6,65.6,29.91,NNE,17,0.0,0.0,100,0.00,,,0.00,WUHU216DAVISWMX,2013-06-27 10:10:00,
2013-06-27 06:15:00,65.7,65.7,29.91,NNE,17,0.0,0.0,100,0.01,,,0.01,WUHU216DAVISWMX,2013-06-27 10:15:00,
2013-06-27 06:20:00,65.8,65.8,29.91,NNE,17,0.0,1.0,100,0.01,,,0.01,WUHU216DAVISWMX,2013-06-27 10:20:00,
2013-06-27 06:25:00,65.3,65.3,29.92,NNE,17,0.0,1.0,100,0.01,,,0.01,WUHU216DAVISWMX,2013-06-27 10:25:00,
2013-06-27 06:30:00,65.4,65.4,29.92,NNE,17,0.0,0.0,100,0.01,,,0.01,WUHU216DAVISWMX,2013-06-27 10:30:00,
2013-06-27 06:35:00,65.2,65.2,29.92,NNE,17,0.0,2.0,100,0.01,,,0.01,WUHU216DAVISWMX,2013-06-27 10:35:00,
2013-06-27 06:40:00,65.5,65.5,29.92,NNE,17,0.0,2.0,100,0.01,,,0.01,WUHU216DAVISWMX,2013-06-27 10:40:00,
2013-06-27 06:45:00,65.2,65.2,29.92,NNE,17,0.0,0.0,100,0.01,,,0.01,WUHU216DAVISWMX,2013-06-27 10:45:00,
2013-06-27 06:50:00,65.2,65.2,29.92,ENE,62,0.0,1.0,100,0.01,,,0.01,WUHU216DAVISWMX,2013-06-27 10:50:00,
2013-06-27 06:55:00,65.2,65.2,29.92,ENE,63,1.0,1.0,100,0.01,,,0.01,WUHU216DAVISWMX,2013-06-27 10:55:00,
2013-06-27 07:00:00,65.2,65.2,29.92,ENE,62,0.0,1.0,100,0.01,,,0.01,WUHU216DAVISWMX,2013-06-27 11:00:00,
2013-06-27 07:05:00,65.5,65.5,29.92,ENE,62,0.0,2.0,100,0.01,,,0.01,WUHU216DAVISWMX,2013-06-27 11:05:00,
2013-06-27 07:10:00,65.4,65.4,29.92,ENE,62,0.0,2.0,100,0.01,,,0.01,WUHU216DAVISWMX,2013-06-27 11:10:00,
2013-06-27 07:15:00,65.3,65.3,29.92,ENE,62,0.0,1.0,100,0.00,,,0.01,WUHU216DAVISWMX,2013-06-27 11:15:00,
2013-06-27 07:20:00,65.1,65.1,29.92,ENE,63,0.0,1.0,100,0.00,,,0.01,WUHU216DAVISWMX,2013-06-27 11:20:00,
2013-06-27 07:25:00,65.3,65.3,29.92,ENE,62,0.0,1.0,100,0.00,,,0.01,WUHU216DAVISWMX,2013-06-27 11:25:00,
2013-06-27 07:30:00,65.0,65.0,29.92,ENE,63,0.0,1.0,100,0.00,,,0.01,WUHU216DAVISWMX,2013-06-27 11:30:00,
2013-06-27 07:35:00,65.1,65.1,29.92,ENE,63,0.0,0.0,100,0.00,,,0.01,WUHU216DAVISWMX,2013-06-27 11:35:00,
2013-06-27 07:45:00,65.4,65.4,29.92,ESE,104,0.0,2.0,100,0.01,,,0.02,WUHU216DAVISWMX,2013-06-27 11:45:00,
2013-06-27 07:50:00,65.2,65.2,29.91,ESE,104,0.0,2.0,100,0.01,,,0.02,WUHU216DAVISWMX,2013-06-27 11:50:00,
2013-06-27 07:55:00,65.5,65.5,29.92,ESE,104,0.0,1.0,100,0.01,,,0.02,WUHU216DAVISWMX,2013-06-27 11:55:00,
2013-06-27 08:00:00,65.4,65.4,29.92,ESE,104,0.0,0.0,100,0.01,,,0.02,WUHU216DAVISWMX,2013-06-27 12:00:00,
2013-06-27 08:05:00,65.3,65.3,29.92,ESE,104,0.0,1.0,100,0.01,,,0.02,WUHU216DAVISWMX,2013-06-27 12:05:00,
2013-06-27 08:10:00,65.4,65.4,29.92,ESE,104,0.0,1.0,100,0.01,,,0.02,WUHU216DAVISWMX,2013-06-27 12:10:00,
2013-06-27 08:15:00,65.3,65.3,29.92,ESE,105,0.0,2.0,100,0.01,,,0.02,WUHU216DAVISWMX,2013-06-27 12:15:00,
2013-06-27 08:20:00,65.4,65.4,29.92,ESE,105,0.0,2.0,100,0.01,,,0.02,WUHU216DAVISWMX,2013-06-27 12:20:00,
2013-06-27 08:25:00,65.2,65.2,29.92,ESE,104,0.0,0.0,100,0.01,,,0.02,WUHU216DAVISWMX,2013-06-27 12:25:00,
2013-06-27 08:30:00,65.4,65.4,29.91,ESE,104,0.0,1.0,100,0.01,,,0.02,WUHU216DAVISWMX,2013-06-27 12:30:00,
2013-06-27 08:35:00,65.3,65.3,29.92,ESE,104,0.0,1.0,100,0.01,,,0.02,WUHU216DAVISWMX,2013-06-27 12:35:00,
2013-06-27 08:40:00,65.3,65.3,29.92,ESE,105,0.0,2.0,100,0.00,,,0.02,WUHU216DAVISWMX,2013-06-27 12:40:00,
2013-06-27 08:45:00,65.0,65.0,29.91,ESE,105,1.0,2.0,100,0.00,,,0.02,WUHU216DAVISWMX,2013-06-27 12:45:00,
2013-06-27 08:50:00,65.2,65.2,29.91,ESE,104,0.0,2.0,100,0.00,,,0.02,WUHU216DAVISWMX,2013-06-27 12:50:00,
2013-06-27 08:55:00,65.2,65.2,29.91,ESE,104,0.0,2.0,100,0.00,,,0.02,WUHU216DAVISWMX,2013-06-27 12:55:00,
2013-06-27 09:00:00,65.3,65.3,29.91,ESE,104,1.0,2.0,100,0.00,,,0.02,WUHU216DAVISWMX,2013-06-27 13:00:00,
2013-06-27 09:05:00,65.4,65.4,29.91,ESE,104,0.0,2.0,100,0.00,,,0.02,WUHU216DAVISWMX,2013-06-27 13:05:00,
2013-06-27 09:10:00,65.2,65.2,29.91,ESE,104,0.0,2.0,100,0.00,,,0.02,WUHU216DAVISWMX,2013-06-27 13:10:00,
2013-06-27 09:15:00,65.4,65.4,29.91,ESE,105,0.0,1.0,100,0.00,,,0.02,WUHU216DAVISWMX,2013-06-27 13:15:00,
2013-06-27 09:20:00,65.3,65.3,29.91,ESE,114,0.0,1.0,100,0.00,,,0.02,WUHU216DAVISWMX,2013-06-27 13:20:00,
2013-06-27 09:25:00,65.5,65.5,29.90,ESE,114,0.0,1.0,100,0.00,,,0.02,WUHU216DAVISWMX,2013-06-27 13:25:00,
2013-06-27 09:30:00,65.4,65.4,29.91,ESE,114,0.0,1.0,100,0.00,,,0.02,WUHU216DAVISWMX,2013-06-27 13:30:00,
2013-06-27 09:35:00,65.4,65.4,29.91,ESE,114,0.0,1.0,100,0.00,,,0.02,WUHU216DAVISWMX,2013-06-27 13:35:00,
2013-06-27 09:40:00,65.2,65.2,29.90,ESE,114,0.0,1.0,100,0.00,,,0.02,WUHU216DAVISWMX,2013-06-27 13:40:00,
2013-06-27 09:45:00,65.2,65.2,29.90,ESE,114,0.0,1.0,100,0.00,,,0.02,WUHU216DAVISWMX,2013-06-27 13:45:00,
2013-06-27 09:50:00,65.4,65.4,29.90,ESE,114,0.0,1.0,100,0.00,,,0.02,WUHU216DAVISWMX,2013-06-27 13:50:00,
2013-06-27 09:55:00,65.8,65.8,29.91,ESE,114,0.0,1.0,100,0.00,,,0.02,WUHU216DAVISWMX,2013-06-27 13:55:00,
2013-06-27 10:00:00,66.0,66.0,29.90,ESE,114,1.0,1.0,100,0.00,,,0.02,WUHU216DAVISWMX,2013-06-27 14:00:00,
2013-06-27 10:05:00,65.8,65.8,29.91,ESE,114,0.0,1.0,100,0.00,,,0.02,WUHU216DAVISWMX,2013-06-27 14:05:00,
2013-06-27 10:10:00,66.3,66.3,29.90,ESE,114,0.0,1.0,100,0.00,,,0.02,WUHU216DAVISWMX,2013-06-27 14:10:00,
2013-06-27 10:15:00,66.2,66.2,29.90,ESE,114,0.0,1.0,100,0.00,,,0.02,WUHU216DAVISWMX,2013-06-27 14:15:00,
2013-06-27 10:20:00,66.1,66.1,29.90,ESE,114,0.0,1.0,100,0.00,,,0.02,WUHU216DAVISWMX,2013-06-27 14:20:00,
2013-06-27 10:25:00,66.6,66.6,29.90,ESE,114,0.0,1.0,100,0.00,,,0.02,WUHU216DAVISWMX,2013-06-27 14:25:00,
2013-06-27 10:30:00,66.4,66.4,29.90,ESE,114,0.0,1.0,100,0.00,,,0.02,WUHU216DAVISWMX,2013-06-27 14:30:00,
2013-06-27 10:35:00,66.7,66.7,29.90,ESE,114,1.0,1.0,100,0.00,,,0.02,WUHU216DAVISWMX,2013-06-27 14:35:00,
2013-06-27 10:40:00,66.8,66.8,29.90,ESE,114,0.0,1.0,100,0.00,,,0.02,WUHU216DAVISWMX,2013-06-27 14:40:00,
2013-06-27 10:45:00,66.7,66.7,29.90,ESE,114,0.0,1.0,100,0.00,,,0.02,WUHU216DAVISWMX,2013-06-27 14:45:00,
2013-06-27 10:50:00,66.8,66.8,29.90,ESE,114,0.0,0.0,100,0.00,,,0.02,WUHU216DAVISWMX,2013-06-27 14:50:00,
2013-06-27 10:55:00,66.9,66.9,29.90,ESE,114,1.0,1.0,100,0.00,,,0.02,WUHU216DAVISWMX,2013-06-27 14:55:00,
2013-06-27 11:00:00,66.9,66.9,29.90,ESE,114,0.0,2.0,100,0.00,,,0.02,WUHU216DAVISWMX,2013-06-27 15:00:00,
2013-06-27 11:05:00,67.1,67.1,29.90,ESE,114,0.0,2.0,100,0.00,,,0.02,WUHU216DAVISWMX,2013-06-27 15:05:00,
2013-06-27 11:10:00,66.9,66.9,29.90,ESE,114,1.0,1.0,100,0.00,,,0.02,WUHU216DAVISWMX,2013-06-27 15:10:00,
2013-06-27 11:15:00,67.0,67.0,29.90,ESE,114,1.0,1.0,100,0.00,,,0.02,WUHU216DAVISWMX,2013-06-27 15:15:00,
2013-06-27 11:20:00,67.4,67.4,29.89,ESE,114,0.0,1.0,100,0.00,,,0.02,WUHU216DAVISWMX,2013-06-27 15:20:00,
2013-06-27 11:25:00,67.0,67.0,29.90,ESE,114,0.0,1.0,100,0.00,,,0.02,WUHU216DAVISWMX,2013-06-27 15:25:00,
2013-06-27 11:31:00,67.1,67.1,29.90,ESE,114,0.0,1.0,100,0.00,,,0.02,WUHU216DAVISWMX,2013-06-27 15:31:00,
2013-06-27 11:36:00,67.3,67.3,29.90,ESE,114,0.0,1.0,100,0.00,,,0.02,WUHU216DAVISWMX,2013-06-27 15:36:00,
2013-06-27 11:41:00,67.3,67.3,29.90,ESE,114,0.0,0.0,100,0.00,,,0.02,WUHU216DAVISWMX,2013-06-27 15:41:00,
2013-06-27 11:46:00,67.6,67.6,29.90,ESE,114,0.0,0.0,100,0.00,,,0.02,WUHU216DAVISWMX,2013-06-27 15:46:00,
2013-06-27 11:51:00,67.7,67.7,29.90,ESE,114,0.0,0.0,100,0.00,,,0.02,WUHU216DAVISWMX,2013-06-27 15:51:00,
2013-06-27 11:56:00,67.8,67.8,29.90,ESE,114,0.0,0.0,100,0.00,,,0.02,WUHU216DAVISWMX,2013-06-27 15:56:00,
2013-06-27 12:01:00,67.8,67.8,29.90,ESE,114,0.0,0.0,100,0.00,,,0.02,WUHU216DAVISWMX,2013-06-27 16:01:00,
2013-06-27 12:06:00,68.3,68.3,29.90,ESE,114,0.0,1.0,100,0.00,,,0.02,WUHU216DAVISWMX,2013-06-27 16:06:00,
2013-06-27 12:11:00,68.4,68.4,29.89,ESE,114,0.0,1.0,100,0.00,,,0.02,WUHU216DAVISWMX,2013-06-27 16:11:00,
2013-06-27 12:16:00,68.1,68.1,29.89,ESE,114,0.0,0.0,100,0.00,,,0.02,WUHU216DAVISWMX,2013-06-27 16:16:00,
2013-06-27 12:21:00,68.1,68.1,29.89,ESE,114,0.0,0.0,100,0.00,,,0.02,WUHU216DAVISWMX,2013-06-27 16:21:00,
2013-06-27 12:26:00,68.5,68.5,29.89,ESE,114,0.0,0.0,100,0.00,,,0.02,WUHU216DAVISWMX,2013-06-27 16:26:00,
2013-06-27 12:31:00,68.4,68.4,29.88,ESE,114,0.0,0.0,100,0.00,,,0.02,WUHU216DAVISWMX,2013-06-27 16:31:00,
2013-06-27 12:36:00,68.7,68.7,29.88,ESE,114,0.0,0.0,100,0.00,,,0.02,WUHU216DAVISWMX,2013-06-27 16:36:00,
2013-06-27 12:41:00,68.9,68.9,29.88,ESE,114,0.0,0.0,100,0.00,,,0.02,WUHU216DAVISWMX,2013-06-27 16:41:00,
2013-06-27 12:46:00,68.9,68.9,29.88,ESE,114,0.0,1.0,100,0.00,,,0.02,WUHU216DAVISWMX,2013-06-27 16:46:00,
2013-06-27 12:51:00,69.4,69.4,29.88,ESE,114,0.0,1.0,100,0.00,,,0.02,WUHU216DAVISWMX,2013-06-27 16:51:00,
2013-06-27 12:56:00,69.2,69.2,29.88,ESE,114,0.0,2.0,100,0.00,,,0.02,WUHU216DAVISWMX,2013-06-27 16:56:00,
2013-06-27 13:01:00,69.6,69.6,29.88,ESE,114,0.0,2.0,100,0.00,,,0.02,WUHU216DAVISWMX,2013-06-27 17:01:00,
2013-06-27 13:06:00,69.4,69.4,29.88,ESE,114,0.0,0.0,100,0.00,,,0.02,WUHU216DAVISWMX,2013-06-27 17:06:00,
2013-06-27 13:11:00,69.6,69.6,29.87,ESE,114,0.0,0.0,100,0.00,,,0.02,WUHU216DAVISWMX,2013-06-27 17:11:00,
2013-06-27 13:16:00,69.6,69.6,29.87,ESE,114,0.0,1.0,100,0.00,,,0.02,WUHU216DAVISWMX,2013-06-27 17:16:00,
2013-06-27 13:21:00,69.8,69.8,29.87,ESE,114,0.0,1.0,100,0.00,,,0.02,WUHU216DAVISWMX,2013-06-27 17:21:00,
2013-06-27 13:26:00,69.8,69.8,29.87,ESE,114,0.0,1.0,100,0.00,,,0.02,WUHU216DAVISWMX,2013-06-27 17:26:00,
2013-06-27 13:31:00,69.6,69.6,29.86,ESE,114,1.0,2.0,100,0.00,,,0.02,WUHU216DAVISWMX,2013-06-27 17:31:00,
2013-06-27 13:36:00,69.5,69.5,29.87,ESE,114,0.0,2.0,100,0.00,,,0.02,WUHU216DAVISWMX,2013-06-27 17:36:00,
2013-06-27 13:41:00,69.6,69.6,29.86,ESE,114,0.0,0.0,100,0.00,,,0.02,WUHU216DAVISWMX,2013-06-27 17:41:00,
2013-06-27 13:46:00,69.8,69.8,29.87,ESE,114,0.0,1.0,100,0.00,,,0.02,WUHU216DAVISWMX,2013-06-27 17:46:00,
2013-06-27 13:51:00,70.0,70.0,29.87,ESE,114,0.0,1.0,100,0.00,,,0.02,WUHU216DAVISWMX,2013-06-27 17:51:00,
2013-06-27 13:56:00,69.8,69.8,29.87,ESE,114,0.0,0.0,100,0.00,,,0.02,WUHU216DAVISWMX,2013-06-27 17:56:00,
2013-06-27 14:01:00,70.0,70.0,29.87,ESE,114,0.0,0.0,100,0.00,,,0.02,WUHU216DAVISWMX,2013-06-27 18:01:00,
2013-06-27 14:06:00,69.9,69.9,29.87,ESE,114,1.0,1.0,100,0.00,,,0.02,WUHU216DAVISWMX,2013-06-27 18:06:00,
2013-06-27 14:11:00,70.2,70.2,29.86,ESE,114,0.0,1.0,100,0.00,,,0.02,WUHU216DAVISWMX,2013-06-27 18:11:00,
2013-06-27 14:16:00,70.3,70.3,29.87,ESE,114,0.0,1.0,100,0.00,,,0.02,WUHU216DAVISWMX,2013-06-27 18:16:00,
2013-06-27 14:21:00,70.0,70.0,29.87,ESE,114,0.0,0.0,100,0.00,,,0.02,WUHU216DAVISWMX,2013-06-27 18:21:00,
2013-06-27 14:26:00,69.9,69.9,29.87,ESE,114,0.0,0.0,100,0.00,,,0.02,WUHU216DAVISWMX,2013-06-27 18:26:00,
2013-06-27 14:31:00,69.9,69.9,29.86,ESE,104,0.0,1.0,100,0.00,,,0.02,WUHU216DAVISWMX,2013-06-27 18:31:00,
2013-06-27 14:36:00,70.4,70.4,29.86,ESE,105,0.0,1.0,100,0.00,,,0.02,WUHU216DAVISWMX,2013-06-27 18:36:00,
2013-06-27 14:41:00,70.2,70.2,29.86,ESE,105,0.0,1.0,100,0.00,,,0.02,WUHU216DAVISWMX,2013-06-27 18:41:00,
2013-06-27 14:46:00,70.2,70.2,29.86,ESE,105,0.0,1.0,100,0.00,,,0.02,WUHU216DAVISWMX,2013-06-27 18:46:00,
2013-06-27 14:51:00,70.4,70.4,29.86,ESE,105,0.0,0.0,100,0.00,,,0.02,WUHU216DAVISWMX,2013-06-27 18:51:00,
2013-06-27 14:56:00,70.5,70.5,29.86,ESE,105,0.0,0.0,100,0.00,,,0.02,WUHU216DAVISWMX,2013-06-27 18:56:00,
2013-06-27 15:01:00,70.4,70.4,29.86,ESE,105,0.0,0.0,100,0.00,,,0.02,WUHU216DAVISWMX,2013-06-27 19:01:00,
2013-06-27 15:06:00,70.2,70.2,29.86,ESE,105,0.0,0.0,100,0.00,,,0.02,WUHU216DAVISWMX,2013-06-27 19:06:00,
2013-06-27 15:11:00,70.4,70.4,29.86,ESE,105,0.0,0.0,100,0.00,,,0.02,WUHU216DAVISWMX,2013-06-27 19:11:00,
2013-06-27 15:16:00,70.4,70.4,29.86,ESE,105,0.0,0.0,100,0.00,,,0.02,WUHU216DAVISWMX,2013-06-27 19:16:00,
2013-06-27 15:21:00,70.3,70.3,29.85,ESE,105,0.0,0.0,100,0.01,,,0.03,WUHU216DAVISWMX,2013-06-27 19:21:00,
2013-06-27 15:26:00,70.4,70.4,29.85,ESE,105,0.0,0.0,100,0.01,,,0.03,WUHU216DAVISWMX,2013-06-27 19:26:00,
2013-06-27 15:31:00,70.1,70.1,29.85,ESE,104,0.0,0.0,100,0.01,,,0.03,WUHU216DAVISWMX,2013-06-27 19:31:00,
2013-06-27 15:41:00,70.3,70.3,29.85,ESE,104,1.0,1.0,100,0.01,,,0.03,WUHU216DAVISWMX,2013-06-27 19:41:00,
2013-06-27 15:46:00,70.3,70.3,29.86,ESE,104,0.0,2.0,100,0.01,,,0.03,WUHU216DAVISWMX,2013-06-27 19:46:00,
2013-06-27 15:51:00,69.9,69.9,29.86,ESE,104,0.0,2.0,100,0.02,,,0.04,WUHU216DAVISWMX,2013-06-27 19:51:00,
2013-06-27 15:56:00,70.0,70.0,29.86,ESE,105,0.0,0.0,100,0.02,,,0.04,WUHU216DAVISWMX,2013-06-27 19:56:00,
2013-06-27 16:01:00,69.8,69.8,29.86,NE,46,0.0,2.0,100,0.02,,,0.04,WUHU216DAVISWMX,2013-06-27 20:01:00,
2013-06-27 16:06:00,69.7,69.7,29.86,NE,46,0.0,2.0,100,0.02,,,0.04,WUHU216DAVISWMX,2013-06-27 20:06:00,
2013-06-27 16:11:00,69.7,69.7,29.86,NE,45,0.0,1.0,100,0.02,,,0.04,WUHU216DAVISWMX,2013-06-27 20:11:00,
2013-06-27 16:16:00,69.9,69.9,29.85,NE,46,0.0,2.0,100,0.02,,,0.04,WUHU216DAVISWMX,2013-06-27 20:16:00,
2013-06-27 16:21:00,69.9,69.9,29.85,NE,46,0.0,2.0,100,0.01,,,0.04,WUHU216DAVISWMX,2013-06-27 20:21:00,
2013-06-27 16:26:00,69.8,69.8,29.85,NE,45,0.0,3.0,100,0.01,,,0.04,WUHU216DAVISWMX,2013-06-27 20:26:00,
2013-06-27 16:31:00,69.8,69.8,29.84,NE,46,1.0,3.0,100,0.01,,,0.04,WUHU216DAVISWMX,2013-06-27 20:31:00,
2013-06-27 16:36:00,69.5,69.5,29.85,NE,46,0.0,2.0,100,0.01,,,0.04,WUHU216DAVISWMX,2013-06-27 20:36:00,
2013-06-27 16:41:00,69.6,69.6,29.85,NE,46,0.0,2.0,100,0.01,,,0.04,WUHU216DAVISWMX,2013-06-27 20:41:00,
2013-06-27 16:46:00,69.8,69.8,29.85,NE,46,0.0,1.0,100,0.01,,,0.04,WUHU216DAVISWMX,2013-06-27 20:46:00,
2013-06-27 16:51:00,69.4,69.4,29.84,NE,46,0.0,1.0,100,0.00,,,0.04,WUHU216DAVISWMX,2013-06-27 20:51:00,
2013-06-27 16:56:00,69.6,69.6,29.85,NE,46,0.0,1.0,100,0.00,,,0.04,WUHU216DAVISWMX,2013-06-27 20:56:00,
2013-06-27 17:01:00,69.4,69.4,29.85,NE,34,1.0,2.0,100,0.00,,,0.04,WUHU216DAVISWMX,2013-06-27 21:01:00,
2013-06-27 17:06:00,69.1,69.1,29.84,SE,146,0.0,2.0,100,0.00,,,0.04,WUHU216DAVISWMX,2013-06-27 21:06:00,
2013-06-27 17:11:00,69.2,69.2,29.85,East,82,0.0,2.0,100,0.00,,,0.04,WUHU216DAVISWMX,2013-06-27 21:11:00,
2013-06-27 17:16:00,68.9,68.9,29.85,ESE,110,0.0,2.0,100,0.00,,,0.04,WUHU216DAVISWMX,2013-06-27 21:16:00,
2013-06-27 17:21:00,68.8,68.8,29.84,ESE,110,0.0,1.0,100,0.00,,,0.04,WUHU216DAVISWMX,2013-06-27 21:21:00,
2013-06-27 17:26:00,68.8,68.8,29.84,ENE,69,0.0,1.0,100,0.00,,,0.04,WUHU216DAVISWMX,2013-06-27 21:26:00,
2013-06-27 17:31:00,69.2,69.2,29.84,ENE,69,0.0,1.0,100,0.00,,,0.04,WUHU216DAVISWMX,2013-06-27 21:31:00,
2013-06-27 17:36:00,68.9,68.9,29.84,SSE,150,0.0,3.0,100,0.00,,,0.04,WUHU216DAVISWMX,2013-06-27 21:36:00,
2013-06-27 17:42:00,69.0,69.0,29.84,ENE,62,1.0,3.0,100,0.00,,,0.04,WUHU216DAVISWMX,2013-06-27 21:42:00,
2013-06-27 17:47:00,68.8,68.8,29.84,NE,41,0.0,3.0,100,0.00,,,0.04,WUHU216DAVISWMX,2013-06-27 21:47:00,
2013-06-27 17:52:00,68.8,68.8,29.84,East,99,0.0,3.0,100,0.00,,,0.04,WUHU216DAVISWMX,2013-06-27 21:52:00,
2013-06-27 17:57:00,69.1,69.1,29.84,East,100,0.0,2.0,100,0.00,,,0.04,WUHU216DAVISWMX,2013-06-27 21:57:00,
2013-06-27 18:02:00,69.1,69.1,29.84,ESE,105,0.0,2.0,100,0.00,,,0.04,WUHU216DAVISWMX,2013-06-27 22:02:00,
2013-06-27 18:07:00,68.6,68.6,29.84,East,101,0.0,2.0,100,0.00,,,0.04,WUHU216DAVISWMX,2013-06-27 22:07:00,
2013-06-27 18:12:00,68.6,68.6,29.84,SSE,152,1.0,3.0,100,0.00,,,0.04,WUHU216DAVISWMX,2013-06-27 22:12:00,
2013-06-27 18:17:00,68.9,68.9,29.85,SSE,151,1.0,3.0,100,0.00,,,0.04,WUHU216DAVISWMX,2013-06-27 22:17:00,
2013-06-27 18:22:00,68.8,68.8,29.85,ENE,68,0.0,3.0,100,0.00,,,0.04,WUHU216DAVISWMX,2013-06-27 22:22:00,
2013-06-27 18:27:00,68.4,68.4,29.85,SE,146,1.0,5.0,100,0.00,,,0.04,WUHU216DAVISWMX,2013-06-27 22:27:00,
2013-06-27 18:32:00,68.3,68.3,29.85,SE,145,1.0,5.0,100,0.00,,,0.04,WUHU216DAVISWMX,2013-06-27 22:32:00,
2013-06-27 18:37:00,68.3,68.3,29.84,SE,146,0.0,3.0,100,0.00,,,0.04,WUHU216DAVISWMX,2013-06-27 22:37:00,
2013-06-27 18:43:00,68.3,68.3,29.84,SE,146,0.0,1.0,100,0.00,,,0.04,WUHU216DAVISWMX,2013-06-27 22:43:00,
2013-06-27 18:48:00,68.1,68.1,29.84,SE,146,0.0,1.0,100,0.00,,,0.04,WUHU216DAVISWMX,2013-06-27 22:48:00,
2013-06-27 18:53:00,68.1,68.1,29.84,SE,144,2.0,2.0,100,0.00,,,0.04,WUHU216DAVISWMX,2013-06-27 22:53:00,
2013-06-27 18:58:00,67.9,67.9,29.84,SE,144,0.0,2.0,100,0.00,,,0.04,WUHU216DAVISWMX,2013-06-27 22:58:00,
2013-06-27 19:03:00,68.2,68.2,29.84,ENE,67,0.0,2.0,100,0.00,,,0.04,WUHU216DAVISWMX,2013-06-27 23:03:00,
2013-06-27 19:08:00,67.7,67.7,29.84,ENE,57,0.0,2.0,100,0.00,,,0.04,WUHU216DAVISWMX,2013-06-27 23:08:00,
2013-06-27 19:13:00,68.0,68.0,29.84,ESE,106,0.0,2.0,100,0.00,,,0.04,WUHU216DAVISWMX,2013-06-27 23:13:00,
2013-06-27 19:18:00,67.8,67.8,29.84,ESE,111,1.0,3.0,100,0.00,,,0.04,WUHU216DAVISWMX,2013-06-27 23:18:00,
2013-06-27 19:23:00,67.1,67.1,29.84,NE,37,0.0,3.0,100,0.00,,,0.04,WUHU216DAVISWMX,2013-06-27 23:23:00,
2013-06-27 19:28:00,67.1,67.1,29.84,East,91,0.0,2.0,100,0.00,,,0.04,WUHU216DAVISWMX,2013-06-27 23:28:00,
2013-06-27 19:33:00,67.4,67.4,29.84,East,97,0.0,3.0,100,0.00,,,0.04,WUHU216DAVISWMX,2013-06-27 23:33:00,
2013-06-27 19:38:00,67.3,67.3,29.84,East,97,0.0,3.0,100,0.00,,,0.04,WUHU216DAVISWMX,2013-06-27 23:38:00,
2013-06-27 19:43:00,66.8,66.8,29.84,ENE,76,0.0,2.0,100,0.00,,,0.04,WUHU216DAVISWMX,2013-06-27 23:43:00,
2013-06-27 19:48:00,66.8,66.8,29.84,ENE,76,0.0,2.0,100,0.00,,,0.04,WUHU216DAVISWMX,2013-06-27 23:48:00,
2013-06-27 19:53:00,66.8,66.8,29.85,SSE,154,0.0,4.0,100,0.00,,,0.04,WUHU216DAVISWMX,2013-06-27 23:53:00,
2013-06-27 19:58:00,67.0,67.0,29.84,SSE,154,0.0,4.0,100,0.00,,,0.04,WUHU216DAVISWMX,2013-06-27 23:58:00,
2013-06-27 20:03:00,66.5,66.5,29.84,SSE,154,0.0,1.0,100,0.00,,,0.04,WUHU216DAVISWMX,2013-06-28 00:03:00,
2013-06-27 20:08:00,66.6,66.6,29.84,SSE,154,0.0,1.0,100,0.00,,,0.04,WUHU216DAVISWMX,2013-06-28 00:08:00,
2013-06-27 20:13:00,66.6,66.6,29.84,SSE,154,0.0,1.0,100,0.00,,,0.04,WUHU216DAVISWMX,2013-06-28 00:13:00,
2013-06-27 20:18:00,66.7,66.7,29.85,SSE,154,0.0,1.0,100,0.00,,,0.04,WUHU216DAVISWMX,2013-06-28 00:18:00,
2013-06-27 20:23:00,66.4,66.4,29.84,SSE,154,0.0,1.0,100,0.00,,,0.04,WUHU216DAVISWMX,2013-06-28 00:23:00,
2013-06-27 20:28:00,66.4,66.4,29.84,SSE,155,0.0,1.0,100,0.00,,,0.04,WUHU216DAVISWMX,2013-06-28 00:28:00,
2013-06-27 20:33:00,66.3,66.3,29.84,NE,43,0.0,2.0,100,0.00,,,0.04,WUHU216DAVISWMX,2013-06-28 00:33:00,
2013-06-27 20:38:00,66.3,66.3,29.84,NE,43,0.0,2.0,100,0.00,,,0.04,WUHU216DAVISWMX,2013-06-28 00:38:00,
2013-06-27 20:44:00,66.4,66.4,29.84,NE,43,0.0,1.0,100,0.00,,,0.04,WUHU216DAVISWMX,2013-06-28 00:44:00,
2013-06-27 20:49:00,66.3,66.3,29.84,NE,43,0.0,1.0,100,0.00,,,0.04,WUHU216DAVISWMX,2013-06-28 00:49:00,
2013-06-27 20:54:00,66.3,66.3,29.84,NE,43,0.0,0.0,100,0.00,,,0.04,WUHU216DAVISWMX,2013-06-28 00:54:00,
2013-06-27 20:59:00,66.3,66.3,29.84,NE,43,0.0,1.0,100,0.00,,,0.04,WUHU216DAVISWMX,2013-06-28 00:59:00,
2013-06-27 21:04:00,66.0,66.0,29.84,South,177,1.0,1.0,100,0.00,,,0.04,WUHU216DAVISWMX,2013-06-28 01:04:00,
2013-06-27 21:09:00,65.9,65.9,29.84,South,171,0.0,1.0,100,0.00,,,0.04,WUHU216DAVISWMX,2013-06-28 01:09:00,
2013-06-27 21:14:00,66.3,66.3,29.84,South,171,0.0,1.0,100,0.00,,,0.04,WUHU216DAVISWMX,2013-06-28 01:14:00,
2013-06-27 21:19:00,65.9,65.9,29.84,South,171,0.0,0.0,100,0.00,,,0.04,WUHU216DAVISWMX,2013-06-28 01:19:00,
2013-06-27 21:24:00,66.3,66.3,29.84,South,171,0.0,0.0,100,0.00,,,0.04,WUHU216DAVISWMX,2013-06-28 01:24:00,
2013-06-27 21:29:00,66.2,66.2,29.84,South,171,0.0,0.0,100,0.00,,,0.04,WUHU216DAVISWMX,2013-06-28 01:29:00,
2013-06-27 21:34:00,65.9,65.9,29.85,South,171,0.0,0.0,100,0.00,,,0.04,WUHU216DAVISWMX,2013-06-28 01:34:00,
2013-06-27 21:39:00,65.8,65.8,29.85,South,171,0.0,1.0,100,0.00,,,0.04,WUHU216DAVISWMX,2013-06-28 01:39:00,
2013-06-27 21:44:00,65.9,65.9,29.85,South,171,0.0,1.0,100,0.00,,,0.04,WUHU216DAVISWMX,2013-06-28 01:44:00,
2013-06-27 21:49:00,66.0,66.0,29.85,South,171,0.0,1.0,100,0.00,,,0.04,WUHU216DAVISWMX,2013-06-28 01:49:00,
2013-06-27 21:54:00,66.1,66.1,29.85,South,171,0.0,0.0,100,0.00,,,0.04,WUHU216DAVISWMX,2013-06-28 01:54:00,
2013-06-27 21:59:00,65.7,65.7,29.85,South,171,0.0,0.0,100,0.00,,,0.04,WUHU216DAVISWMX,2013-06-28 01:59:00,
2013-06-27 22:04:00,65.7,65.7,29.84,South,171,0.0,0.0,100,0.00,,,0.04,WUHU216DAVISWMX,2013-06-28 02:04:00,
2013-06-27 22:09:00,65.9,65.9,29.84,South,171,0.0,0.0,100,0.00,,,0.04,WUHU216DAVISWMX,2013-06-28 02:09:00,
2013-06-27 22:14:00,65.9,65.9,29.84,South,171,0.0,1.0,100,0.00,,,0.04,WUHU216DAVISWMX,2013-06-28 02:14:00,
2013-06-27 22:19:00,65.5,65.5,29.84,South,171,0.0,1.0,100,0.00,,,0.04,WUHU216DAVISWMX,2013-06-28 02:19:00,
2013-06-27 22:24:00,65.9,65.9,29.84,NE,52,0.0,2.0,100,0.00,,,0.04,WUHU216DAVISWMX,2013-06-28 02:24:00,
2013-06-27 22:30:00,65.8,65.8,29.84,NE,52,0.0,2.0,100,0.00,,,0.04,WUHU216DAVISWMX,2013-06-28 02:30:00,
2013-06-27 22:35:00,65.6,65.6,29.84,NE,52,0.0,1.0,100,0.00,,,0.04,WUHU216DAVISWMX,2013-06-28 02:35:00,
2013-06-27 22:40:00,65.4,65.4,29.83,NE,52,0.0,1.0,100,0.00,,,0.04,WUHU216DAVISWMX,2013-06-28 02:40:00,
2013-06-27 22:45:00,65.3,65.3,29.83,ENE,76,0.0,2.0,100,0.00,,,0.04,WUHU216DAVISWMX,2013-06-28 02:45:00,
2013-06-27 22:50:00,65.0,65.0,29.83,NE,55,0.0,2.0,100,0.00,,,0.04,WUHU216DAVISWMX,2013-06-28 02:50:00,
2013-06-27 22:55:00,65.0,65.0,29.83,NE,55,0.0,1.0,100,0.00,,,0.04,WUHU216DAVISWMX,2013-06-28 02:55:00,
2013-06-27 23:00:00,65.2,65.2,29.82,NE,48,0.0,3.0,100,0.00,,,0.04,WUHU216DAVISWMX,2013-06-28 03:00:00,
2013-06-27 23:05:00,65.0,65.0,29.82,NE,49,0.0,3.0,100,0.00,,,0.04,WUHU216DAVISWMX,2013-06-28 03:05:00,
2013-06-27 23:10:00,65.1,65.1,29.82,NE,49,0.0,1.0,100,0.00,,,0.04,WUHU216DAVISWMX,2013-06-28 03:10:00,
2013-06-27 23:15:00,65.2,65.2,29.82,NE,49,0.0,2.0,100,0.00,,,0.04,WUHU216DAVISWMX,2013-06-28 03:15:00,
2013-06-27 23:20:00,65.0,65.0,29.82,ESE,102,0.0,2.0,100,0.00,,,0.04,WUHU216DAVISWMX,2013-06-28 03:20:00,
2013-06-27 23:25:00,64.8,64.8,29.82,ESE,103,0.0,2.0,100,0.00,,,0.04,WUHU216DAVISWMX,2013-06-28 03:25:00,
2013-06-27 23:31:00,64.8,64.8,29.82,ESE,103,0.0,1.0,100,0.00,,,0.04,WUHU216DAVISWMX,2013-06-28 03:31:00,
2013-06-27 23:36:00,64.7,64.7,29.81,ESE,103,0.0,1.0,100,0.00,,,0.04,WUHU216DAVISWMX,2013-06-28 03:36:00,
2013-06-27 23:41:00,64.7,64.7,29.81,East,89,0.0,2.0,100,0.00,,,0.04,WUHU216DAVISWMX,2013-06-28 03:41:00,
2013-06-27 23:46:00,64.8,64.8,29.81,East,89,0.0,2.0,100,0.00,,,0.04,WUHU216DAVISWMX,2013-06-28 03:46:00,
2013-06-27 23:51:00,64.6,64.6,29.81,ENE,73,0.0,2.0,100,0.00,,,0.04,WUHU216DAVISWMX,2013-06-28 03:51:00,
2013-06-27 23:56:00,64.6,64.6,29.81,ENE,73,0.0,2.0,100,0.00,,,0.04,WUHU216DAVISWMX,2013-06-28 03:56:00,